Theta_e
312 307 303 303 302 302 302 303 305 306 306 307 309 311 312 313 314 316 318 318 318 316 315 319 321 321 319 319 321 319 321 320 318 319 319 320 324 324 323 323 324 324 326 326 322 327 331 324 325 325 321 323 325 325
311 305 303 303 302 302 302 303 302 304 306 306 307 309 311 312 312 315 317 317 318 316 316 321 321 321 322 319 314 313 318 318 317 319 318 320 323 318 319 325 319 324 319 322 319 320 318 322 324 324 321 323 325 325
308 303 302 302 302 302 302 302 302 302 303 303 303 306 310 311 311 312 314 316 318 313 314 316 320 321 323 323 319 316 315 317 317 313 315 317 319 314 317 320 323 321 318 320 320 325 325 324 323 323 323 323 323 322
305 302 302 302 303 302 302 302 303 303 303 303 303 304 309 310 311 312 313 316 316 314 318 319 321 320 319 320 320 320 317 314 312 311 313 314 317 314 317 319 319 318 320 320 324 324 325 324 324 323 323 322 322 321
302 301 301 302 302 302 302 302 303 303 303 303 303 305 308 310 311 314 318 315 314 314 317 316 317 320 320 319 320 319 316 312 313 316 316 317 315 319 317 317 320 320 320 321 323 321 321 322 322 321 322 322 322 322
301 301 301 301 301 301 301 301 302 303 303 303 304 305 308 310 312 317 317 315 316 315 315 315 315 318 318 318 319 317 314 312 313 316 317 316 317 317 320 320 318 320 320 318 322 321 320 321 320 321 321 321 322 323
301 301 301 301 301 301 301 301 301 302 303 303 304 306 309 310 311 313 318 318 317 314 317 319 318 317 317 316 315 314 314 313 313 313 316 316 317 316 317 321 320 322 321 321 321 321 322 321 320 319 323 323 324 324
301 301 301 300 300 300 301 301 302 303 303 305 307 309 310 311 312 315 316 316 315 315 315 319 320 317 317 316 317 311 314 312 313 314 315 317 316 317 322 319 323 321 321 322 321 320 319 320 321 322 323 323 322 322
301 301 300 300 300 300 300 301 302 303 306 309 310 311 313 314 315 319 318 317 316 318 320 319 319 323 314 315 315 316 314 317 313 317 316 317 318 321 319 322 322 322 322 323 321 321 323 323 322 320 319 319 318 318
302 301 300 300 300 300 300 301 303 305 313 315 314 316 317 317 317 317 317 314 314 313 313 317 315 321 315 315 319 319 316 318 322 319 317 318 325 322 321 320 320 321 321 322 325 324 322 320 318 316 316 316 316 318
301 301 300 300 300 300 300 301 303 308 315 314 310 313 315 316 314 315 319 320 319 323 315 316 314 317 312 320 318 317 320 318 322 321 322 323 326 323 321 321 319 320 322 321 320 319 317 317 315 315 316 316 315 314
301 301 301 300 300 300 300 301 303 307 309 308 308 310 313 315 314 320 321 319 323 325 319 319 318 312 312 315 320 319 321 317 322 317 321 327 324 321 321 321 321 321 321 320 319 317 316 315 314 314 314 314 313 313
300 300 300 300 300 300 300 302 303 304 309 312 311 314 317 315 316 321 322 321 321 318 320 317 319 318 315 315 319 318 321 321 317 320 322 324 323 320 320 321 323 322 320 319 317 316 314 313 313 313 312 312 312 310
300 300 300 300 300 303 304 303 303 307 311 312 317 310 317 318 318 318 319 319 318 319 318 315 317 319 317 319 319 324 320 319 322 323 329 323 321 321 320 322 322 320 318 316 315 315 313 313 312 312 311 311 309 309
300 300 300 303 305 303 304 304 305 309 311 317 317 315 317 315 314 316 316 315 315 317 318 318 318 318 320 321 318 319 323 323 321 321 322 321 320 319 320 321 320 317 315 314 314 313 313 312 311 310 310 310 309 309
299 300 304 306 304 303 303 306 308 310 312 314 314 317 315 317 316 314 316 320 318 320 319 318 321 323 324 322 323 322 322 323 321 320 318 319 319 318 319 320 319 317 315 314 313 312 312 311 311 310 309 309 308 308
299 301 304 306 305 305 308 310 311 312 311 314 313 310 313 314 315 313 314 316 316 319 324 322 325 324 320 323 324 320 321 319 317 320 319 319 318 318 317 320 319 317 315 315 313 312 312 312 312 310 308 308 307 307
299 301 301 305 307 309 310 310 310 312 313 312 311 311 310 311 313 312 314 315 317 317 317 321 320 324 323 324 321 319 319 318 318 320 319 318 317 319 322 320 319 318 316 315 314 313 312 312 312 310 311 309 307 306
299 300 300 301 305 307 309 309 309 310 312 310 308 307 308 309 308 309 310 314 316 316 317 317 321 322 320 318 318 316 316 318 322 320 320 320 321 322 322 322 321 318 317 316 314 313 312 312 313 313 313 310 306 306
298 298 299 300 304 307 310 308 309 309 312 311 308 307 308 309 309 311 312 313 313 316 319 320 320 318 316 316 314 317 315 313 319 322 322 319 321 321 321 321 320 319 318 317 316 314 314 313 313 314 315 313 308 306
298 298 300 302 305 307 308 308 309 308 309 311 311 310 311 309 309 311 312 311 315 316 316 316 316 314 315 316 317 315 313 317 320 319 320 319 319 320 321 321 321 319 317 316 314 314 315 315 315 315 315 315 310 307
301 303 303 304 306 308 307 306 307 308 308 310 310 309 311 312 311 310 310 312 313 313 314 314 314 314 314 313 314 318 318 317 321 321 320 319 315 316 317 321 320 318 316 316 316 316 315 315 313 315 314 314 313 310
300 304 306 305 307 306 306 306 308 308 312 312 310 312 312 311 311 309 312 310 311 310 312 312 313 315 313 316 316 316 317 318 318 319 319 318 317 319 320 321 322 320 317 318 318 317 317 315 313 313 311 310 311 312
301 303 307 307 305 306 306 309 309 310 308 309 310 312 312 312 311 313 315 312 310 310 310 311 311 312 314 316 315 316 321 321 319 318 319 317 311 316 321 322 323 322 319 315 315 314 312 312 312 312 311 310 310 311
299 303 304 304 306 309 309 309 309 309 310 309 310 310 310 312 316 316 314 312 310 311 310 310 310 312 313 314 315 318 321 321 319 316 318 316 314 314 314 314 317 317 314 312 312 313 313 313 313 312 312 312 311 310
300 303 304 308 307 307 308 311 311 309 309 309 310 308 308 310 313 314 311 313 315 312 312 313 314 316 316 315 316 316 320 322 321 319 319 314 315 314 312 311 311 314 315 315 315 314 314 313 313 312 311 310 311 311
304 305 305 305 307 309 310 309 308 310 313 314 312 312 312 316 316 313 313 315 317 319 319 320 319 318 320 321 321 320 321 323 323 322 321 319 316 316 316 314 313 316 316 316 315 316 315 315 315 314 313 311 311 310
301 306 307 307 305 304 308 309 313 313 312 310 311 316 316 316 316 313 314 318 318 319 319 320 322 321 322 321 322 322 321 321 321 320 320 319 318 317 317 317 316 318 317 317 316 316 316 316 315 314 314 312 312 312
305 305 308 309 310 311 309 309 310 309 310 310 315 316 314 312 314 314 317 318 318 318 319 319 319 321 321 321 320 321 321 321 320 316 316 315 313 316 317 317 317 316 315 314 315 315 315 315 315 315 314 313 314 314
304 307 309 310 311 312 310 309 312 311 310 311 314 315 313 312 314 316 318 318 317 317 318 319 319 319 320 319 318 319 321 321 321 319 314 313 315 318 318 317 315 315 316 314 313 313 314 314 314 314 315 315 313 313
303 305 308 309 310 308 309 310 308 309 311 313 312 313 314 314 314 315 316 317 318 317 317 317 318 318 320 319 318 318 318 321 319 320 320 318 317 318 318 319 318 318 319 318 315 315 316 316 314 314 314 314 313 313
305 306 307 308 307 306 307 308 308 309 309 310 313 315 316 317 318 317 316 316 317 317 317 317 318 319 320 320 320 319 320 320 319 319 318 318 317 318 318 318 318 318 319 319 319 319 319 318 316 315 314 314 313 312
306 305 306 308 309 310 313 314 313 314 314 313 316 317 317 317 319 318 318 318 317 317 318 318 320 321 321 320 319 320 320 319 318 318 318 318 319 318 318 318 318 318 319 318 318 318 319 317 313 313 313 313 312 311
Wind_Speed
17 17 16 16 17 18 18 18 19 19 20 20 20 19 18 19 20 20 3 15 6 1 5 3 2 2 3 2 3 3 3 4 4 4 3 2 2 2 2 3 0 3 4 2 3 3 4 1 3 2 4 1 4 3
16 15 13 13 15 16 18 18 17 18 19 19 20 19 17 17 19 18 4 11 10 3 5 6 17 17 9 6 5 2 4 3 4 4 0 2 0 2 2 1 3 2 4 4 4 4 3 3 4 2 3 4 2 2
15 13 11 12 13 15 16 17 18 19 19 20 19 19 15 15 16 18 10 13 5 3 4 4 3 4 6 11 5 4 2 3 2 3 4 2 1 3 2 3 1 4 2 4 4 4 3 4 3 3 1 1 3 3
13 12 11 12 13 14 16 17 18 19 20 21 18 17 15 13 14 15 10 7 2 2 2 5 9 2 2 6 7 4 6 4 5 3 3 3 2 3 3 2 3 4 3 3 2 3 3 4 1 2 1 3 4 5
12 12 12 12 13 14 16 16 18 19 20 22 18 16 14 14 13 13 1 4 5 2 2 5 17 6 5 6 9 6 6 3 2 2 2 2 2 3 1 2 1 2 5 3 5 6 4 4 4 5 4 4 5 5
12 12 12 13 14 16 16 17 19 20 21 21 17 15 13 13 13 2 2 6 8 5 2 3 5 5 0 7 7 5 3 3 3 3 2 2 2 3 3 2 4 3 0 4 4 3 3 4 5 4 5 6 5 6
12 12 12 13 14 15 16 17 19 21 22 19 15 14 12 10 12 2 3 1 5 12 2 4 5 4 1 4 3 2 4 2 3 2 1 2 1 3 3 3 5 2 3 4 4 3 3 2 4 6 5 9 13 13
11 11 11 11 13 14 16 17 20 22 20 17 16 11 9 9 10 6 2 2 5 3 2 0 4 4 1 1 0 2 2 3 4 2 1 2 2 2 0 4 4 4 5 3 2 1 3 4 5 6 10 8 8 8
11 10 10 11 12 14 16 18 21 21 19 16 10 8 2 1 1 2 1 1 1 1 2 1 2 3 3 1 1 3 2 1 2 1 2 3 1 2 5 5 6 6 5 2 2 4 5 4 6 7 7 9 9 10
10 10 10 11 13 14 15 18 21 19 12 8 3 1 2 3 1 1 1 3 4 3 2 3 1 3 2 2 1 2 2 2 1 3 2 3 2 3 3 5 5 4 4 4 3 4 4 4 5 7 7 8 8 10
9 10 10 11 13 14 14 16 18 15 4 4 6 2 5 3 1 2 1 1 1 2 3 4 5 2 1 3 3 1 2 0 1 4 4 0 1 3 2 4 4 6 6 6 7 5 4 2 5 6 10 12 13 15
9 9 10 11 13 14 13 13 14 7 4 8 9 8 5 2 2 0 3 1 3 4 3 4 5 5 2 3 3 1 2 2 4 1 3 2 3 4 5 5 5 5 9 7 8 5 5 6 9 8 9 11 14 17
9 10 11 13 14 14 11 10 9 8 8 1 1 2 2 1 1 4 5 3 2 3 4 3 2 3 1 3 3 3 2 4 1 2 2 4 2 4 5 5 5 7 11 9 7 7 8 7 8 10 11 16 18 18
10 10 13 15 16 13 12 10 6 3 1 1 1 3 4 4 4 4 4 3 5 3 2 2 2 3 1 3 2 3 3 2 2 1 4 3 6 6 5 3 6 6 6 6 7 7 7 7 9 12 14 15 16 16
8 11 12 9 11 10 6 6 5 2 2 2 2 4 5 4 4 4 4 3 4 3 4 3 3 3 1 3 1 2 2 3 3 3 3 4 7 6 4 4 6 6 5 5 6 5 5 5 7 10 14 15 15 16
8 9 2 9 5 3 3 6 6 3 2 2 3 3 3 0 3 3 3 4 2 1 3 3 3 3 3 4 3 5 4 4 3 3 3 5 7 5 4 6 6 10 9 8 7 7 3 3 5 8 11 16 18 15
6 2 7 5 2 2 4 2 3 3 3 3 4 3 3 4 5 4 2 4 3 1 3 3 4 6 2 3 2 4 5 4 4 2 4 7 7 6 6 8 11 11 10 9 9 9 5 2 3 5 9 16 18 16
4 5 8 6 1 1 1 2 2 2 4 4 2 3 2 2 3 4 4 2 1 2 1 4 3 3 5 5 2 3 3 1 1 4 5 5 4 8 13 11 14 13 11 11 12 10 9 8 6 7 6 10 16 20
8 9 8 6 3 2 1 2 3 3 4 3 3 2 3 4 4 5 3 5 3 1 4 2 3 3 3 3 3 3 2 3 4 3 3 7 10 12 14 17 18 14 13 13 13 14 13 11 9 9 8 5 9 12
9 9 7 6 3 2 2 2 3 2 3 3 2 3 2 3 3 3 2 1 1 1 1 2 4 3 4 3 3 4 3 4 4 3 2 3 9 12 16 18 17 17 14 12 11 12 11 12 12 12 12 8 2 6
4 6 5 5 3 3 2 2 2 3 3 3 2 1 3 2 2 2 2 1 2 2 3 3 3 3 5 2 5 4 6 8 5 5 5 4 9 15 14 17 18 16 13 12 11 13 11 15 16 13 8 7 7 0
3 6 3 5 3 3 2 5 3 4 2 3 3 2 3 2 2 3 2 2 3 4 4 3 3 4 3 4 7 14 14 11 10 11 11 9 4 4 8 18 17 13 16 18 17 15 12 10 9 4 5 5 9 9
5 7 3 3 2 2 5 1 1 3 2 2 3 3 2 2 3 1 2 3 4 4 8 6 6 7 7 14 10 10 12 16 8 12 17 16 10 12 16 21 24 17 14 21 18 17 17 12 7 6 7 5 4 9
4 2 2 4 4 3 2 3 3 3 2 1 2 3 3 3 2 0 4 3 4 2 3 5 7 3 2 3 3 5 13 16 15 13 18 16 8 13 22 24 26 26 23 19 16 15 12 11 10 7 10 7 5 7
2 2 2 2 2 2 3 3 3 2 3 4 2 3 3 1 2 3 3 4 3 3 5 4 3 5 5 4 3 10 17 20 14 6 18 21 17 14 14 17 23 26 19 13 13 16 14 11 12 10 8 11 13 9
2 3 4 4 2 3 3 2 3 3 3 4 5 3 1 2 3 5 3 2 2 2 3 3 4 3 4 8 4 3 16 24 23 12 20 22 22 21 11 6 5 13 16 16 14 16 18 18 15 15 12 11 9 11
2 3 3 3 2 2 3 4 3 3 4 4 2 2 2 3 5 3 2 2 2 2 9 11 7 5 4 3 9 17 21 30 29 28 27 23 20 20 20 14 12 14 9 12 12 13 12 8 12 17 21 17 12 11
4 3 5 4 3 3 3 3 3 3 3 2 1 3 3 4 3 2 3 3 5 3 10 10 4 4 4 5 3 12 14 18 18 15 15 18 14 13 16 14 12 10 11 8 9 7 7 8 11 13 19 18 17 12
3 3 3 4 4 4 5 5 4 4 4 3 2 3 4 3 2 2 5 8 5 4 3 5 5 2 4 4 3 18 23 19 15 9 8 4 3 7 15 20 19 15 12 10 8 5 5 11 5 8 12 17 11 7
4 4 3 2 3 4 4 6 3 3 4 4 4 2 3 4 14 16 9 10 11 10 8 7 8 7 2 1 3 3 9 9 15 14 6 6 10 20 18 14 14 14 13 12 12 10 7 4 3 7 8 12 11 6
2 3 2 3 3 3 4 4 4 4 4 5 5 5 6 3 5 11 13 17 16 7 7 9 12 13 11 11 7 3 1 6 9 16 18 23 16 15 12 10 13 10 10 8 8 5 5 4 3 2 13 16 9 6
3 6 4 4 4 4 3 4 3 3 3 4 4 3 1 2 4 3 10 12 11 12 16 15 12 15 20 20 12 8 4 7 11 15 22 20 10 9 11 11 12 12 9 7 6 9 9 9 8 9 12 12 10 10
2 1 1 2 3 3 3 4 3 4 3 2 1 1 3 3 4 3 5 18 21 19 17 17 15 10 7 11 8 10 10 10 12 21 20 11 14 16 14 11 12 19 18 15 13 11 8 7 7 7 9 14 12 11
Wind_Direction
315 320 327 335 343 347 345 345 346 346 347 346 350 354 358 359 2 7 27 19 25 180 279 263 333 44 15 77 128 270 48 347 41 70 122 214 180 287 43 321 12 153 129 174 99 101 240 352 26 160 206 103 160 177
306 310 320 330 339 344 348 346 344 343 342 342 343 346 352 358 357 4 337 353 343 170 247 286 276 270 234 192 138 19 170 186 186 89 152 113 96 39 153 233 344 33 178 170 139 212 263 327 115 104 126 141 215 233
294 298 310 323 331 338 339 344 348 345 338 335 335 337 342 351 355 356 337 351 345 31 306 352 335 338 220 227 228 118 289 193 168 167 153 153 132 128 153 245 58 336 127 88 92 323 79 86 54 75 92 247 280 265
282 285 299 312 322 327 332 338 340 340 342 340 332 332 335 340 346 341 332 352 15 117 65 284 350 333 78 151 148 132 143 94 97 74 101 128 155 162 204 192 145 203 57 114 54 278 0 320 184 210 289 296 295 298
270 279 290 303 311 320 326 332 333 335 337 337 331 331 333 335 336 333 309 60 17 125 219 280 316 336 201 162 117 96 88 90 82 65 83 214 173 115 20 76 308 185 165 140 215 204 170 220 215 206 240 257 274 231
267 278 285 294 306 315 315 322 329 331 331 330 326 327 330 331 335 333 21 197 50 34 82 332 310 295 192 149 106 84 82 95 96 132 204 250 257 104 101 170 261 276 105 142 181 181 203 266 289 348 317 317 310 306
266 276 287 295 302 310 317 319 323 326 327 326 323 321 316 317 321 241 218 139 247 346 72 324 326 292 209 77 33 60 47 76 106 120 112 169 346 82 103 165 226 173 127 93 68 86 350 345 279 311 308 313 319 307
264 274 285 297 303 308 316 320 324 325 325 323 318 311 298 286 285 292 14 19 210 158 83 145 275 344 144 87 314 15 71 24 12 152 52 143 10 56 202 247 140 141 124 99 82 184 196 279 323 341 348 337 330 321
261 272 283 295 304 312 317 321 325 327 326 321 312 311 308 192 237 339 76 53 38 101 168 127 186 233 352 49 94 31 67 39 307 136 256 99 336 203 229 148 151 178 177 233 61 56 27 27 354 344 342 338 327 316
262 272 283 293 305 313 318 322 328 331 337 333 351 9 36 358 36 224 317 18 15 345 56 211 183 261 97 32 22 88 27 160 171 249 93 79 243 274 169 169 141 113 103 75 26 351 357 351 351 336 325 312 308 311
266 276 283 293 307 317 317 323 332 341 4 15 5 339 324 329 222 37 263 168 189 256 197 232 185 204 277 120 193 178 170 134 60 266 130 111 247 234 169 129 102 106 92 84 103 100 78 34 331 332 342 344 337 329
270 279 288 296 306 317 314 322 333 355 17 327 300 304 308 11 50 157 235 277 197 225 204 173 210 190 265 111 105 335 124 58 240 168 96 167 246 202 145 129 116 129 123 104 96 92 60 40 17 355 338 330 332 332
278 287 293 298 304 308 304 309 317 314 330 42 269 297 62 253 81 205 211 242 244 220 187 169 173 162 43 56 66 85 86 239 26 51 217 222 205 154 158 137 127 119 117 110 97 81 59 44 28 1 341 347 342 340
275 288 293 300 302 299 293 281 280 301 303 125 140 309 183 222 237 201 210 212 247 212 141 169 113 137 142 69 135 113 237 77 322 164 229 225 197 173 178 143 126 130 118 103 87 70 62 42 8 8 6 355 348 343
275 281 294 303 317 317 290 216 192 222 255 227 164 224 227 243 269 247 255 283 259 240 131 101 53 93 44 105 54 99 148 248 209 229 227 192 178 165 161 142 140 142 135 121 113 102 81 40 21 6 5 1 354 349
303 308 308 329 327 6 128 153 165 208 276 243 237 270 261 311 301 337 302 291 298 21 107 69 113 129 186 145 125 198 165 221 232 214 213 141 159 180 168 161 155 147 136 127 132 142 122 54 15 350 6 11 4 4
309 273 355 351 302 305 165 167 191 224 240 248 250 232 228 239 241 252 256 264 319 256 141 128 151 200 115 110 194 175 191 209 197 194 169 165 172 184 160 154 150 147 144 153 169 184 194 228 322 354 3 0 6 12
262 258 348 1 303 145 206 208 253 269 252 251 239 261 228 238 275 287 270 295 13 129 108 184 139 149 176 177 211 227 226 273 189 166 168 171 184 165 163 155 163 169 170 182 197 205 226 244 267 281 315 355 6 15
257 274 293 329 342 283 246 233 210 247 244 260 258 251 230 254 243 249 271 281 272 183 114 53 126 182 213 209 163 209 181 178 167 181 193 188 183 170 175 171 172 181 187 197 203 218 230 244 256 282 295 306 8 11
264 269 272 284 299 273 241 260 199 256 271 262 274 268 231 236 271 291 299 324 29 54 84 194 193 203 189 210 186 154 175 168 130 121 212 236 200 180 182 172 183 193 203 211 224 240 255 268 270 280 282 268 298 18
267 258 228 222 220 238 279 281 253 218 275 278 278 276 260 315 280 266 276 118 78 200 228 213 214 216 198 224 201 159 145 158 178 176 191 203 205 192 184 185 187 193 203 211 227 248 251 262 291 300 279 256 215 159
245 168 198 203 240 211 256 237 244 294 276 265 303 230 256 253 237 228 193 136 200 236 203 193 215 221 233 197 208 220 233 218 233 194 184 163 149 156 173 181 176 204 214 220 226 242 259 284 297 233 214 248 226 225
301 177 192 181 229 196 264 199 240 256 256 264 330 293 273 274 240 93 228 213 227 209 205 207 229 237 223 257 261 254 245 218 190 202 186 192 195 196 180 176 192 198 215 233 233 244 257 260 254 196 196 208 224 229
238 257 219 183 185 241 242 236 206 237 263 280 270 265 259 236 308 231 241 232 238 222 198 222 193 213 280 267 235 237 239 208 193 193 187 171 157 174 178 188 199 207 214 226 225 226 233 231 229 208 205 202 212 238
105 254 158 230 258 244 222 245 228 239 242 213 238 272 270 253 263 253 250 265 236 234 240 233 192 201 203 228 250 239 230 191 174 176 193 191 169 158 186 196 202 210 216 219 217 222 225 232 225 212 199 223 220 228
181 221 180 195 202 199 245 237 206 227 219 214 234 240 259 171 210 246 235 289 291 322 319 251 210 217 238 216 208 186 206 202 188 162 187 187 177 169 173 174 198 236 234 231 245 236 234 230 226 209 194 215 224 219
272 250 230 215 275 299 248 240 229 230 237 225 242 282 211 237 231 244 240 262 252 279 322 312 245 206 196 201 226 240 217 201 194 194 192 188 192 195 195 193 207 237 222 209 214 215 211 179 196 216 207 213 219 215
235 249 215 181 204 211 244 289 276 248 235 218 152 250 248 216 246 226 213 239 262 331 355 345 292 216 167 91 206 172 163 189 180 177 170 178 183 192 204 211 185 167 165 163 172 185 186 201 196 196 199 214 232 242
244 235 205 233 213 222 211 207 237 235 179 144 187 244 259 254 245 221 260 240 248 286 293 340 13 62 146 124 81 136 134 143 132 129 144 153 128 159 177 167 158 154 155 153 149 163 168 166 189 194 212 216 231 262
248 181 208 244 229 236 237 188 242 227 203 194 178 232 269 266 282 290 256 216 215 226 239 245 266 300 354 20 286 137 124 163 187 177 157 177 179 158 156 161 167 179 175 166 154 152 153 196 232 245 219 192 200 200
239 170 217 221 248 252 252 256 253 231 214 213 207 219 249 287 288 271 250 231 217 227 229 244 251 253 243 232 234 157 118 186 197 201 192 194 185 169 168 174 192 205 200 203 195 221 248 283 278 175 188 194 205 199
188 198 200 239 264 268 276 239 244 244 248 225 235 186 115 314 270 257 244 214 191 207 217 213 217 236 234 234 247 196 190 218 187 189 192 195 199 187 167 178 201 207 219 179 204 231 245 259 268 234 207 197 202 196
248 226 225 271 305 305 316 316 285 296 267 246 138 13 159 247 272 268 202 202 206 210 216 223 227 225 213 206 199 174 185 190 191 184 174 158 147 150 160 170 189 186 193 210 229 241 252 236 180 164 194 210 202 199